Home   Weather   Westerstede   Past weeks

Flag for Germany Past Weather in Westerstede, Lower Saxony, Germany — Yesterday and Last 2 Weeks

Now
63 °F

Partly sunny.


Feels Like: 63 °F
Forecast: 51 / 62 °F
Wind: 16 mph from Southwest

Location: Wittmundhaven

Current Time: Sep 29, 2016 at 12:17:20 PM

Latest Report: Sep 29, 2016 at 11:20 AM


Visibility: N/A

Pressure: 29.86 "Hg

Humidity: 77%

Dew Point: 55 °F

Location of WesterstedeLocation

Past Weather in Westerstede — Graph

°F

Westerstede Temperature Yesterday

Maximum temperature yesterday: 68 °F (at 1:20 PM)
Minimum temperature yesterday: 61 °F (at 12:20 AM)
Average temperature yesterday: 64 °F

High & Low Weather Summary for the Past Weeks

 TemperatureHumidityPressure
High82 °F (Sep 14, 3:20 PM)100% (Sep 17, 2:20 AM)30.30 "Hg (Sep 17, 2:20 AM)
Low45 °F (Sep 27, 7:20 AM)43% (Sep 27, 5:20 PM)29.86 "Hg (Sep 16, 12:20 AM)
Average61 °F76%30.09 "Hg
* Reported Sep 14 10:20 AM — Sep 29 10:20 AM, Westerstede, Weather by CustomWeather, © 2016

Note: Actual official high and low records may vary slightly from our data, if they occured in-between our weather recording intervals... More about our weather records

Advertising

Westerstede Weather History for the Previous 24 Hours

Scroll right to see more
 ConditionsComfort  
Time TempWeatherWind HumidityBarometerVisibility
10:20 AM
Thu, Sep 29
63 °FPartly sunny.16 mph77%29.86 "HgN/A
9:20 AM61 °FPartly sunny.16 mph77%29.89 "HgN/A
8:55 AM61 °FPartly sunny.13 mph72%29.89 "HgN/A
8:20 AM61 °FBroken clouds.14 mph72%29.89 "HgN/A
7:20 AM61 °FPartly cloudy.17 mph77%29.89 "HgN/A
6:20 AM63 °FPartly cloudy.15 mph77%29.92 "HgN/A
5:20 AM63 °FPassing clouds.15 mph83%29.95 "HgN/A
4:20 AM63 °FPassing clouds.15 mph88%29.95 "HgN/A
3:20 AM63 °FPassing clouds.13 mph83%29.98 "HgN/A
2:20 AM63 °FPartly cloudy.13 mph83%30.01 "HgN/A
1:20 AM61 °FPartly cloudy.13 mph83%30.04 "HgN/A
12:20 AM61 °FPartly cloudy.10 mph83%30.04 "HgN/A
11:20 PM
Wed, Sep 28
63 °FPartly cloudy.13 mph83%30.07 "HgN/A
10:20 PM63 °FPartly cloudy.12 mph77%30.07 "HgN/A
9:20 PM63 °FPartly cloudy.8 mph77%30.09 "HgN/A
8:20 PM63 °FPartly cloudy.12 mph73%30.09 "HgN/A
7:20 PM63 °FPartly cloudy.7 mph77%30.09 "HgN/A
6:20 PM64 °FPartly sunny.13 mph73%30.09 "HgN/A
5:20 PM66 °FPassing clouds.18 mph68%30.09 "HgN/A
4:20 PM66 °FPassing clouds.24 mph68%30.09 "HgN/A
3:20 PM68 °FPassing clouds.23 mph64%30.09 "HgN/A
2:20 PM68 °FBroken clouds.24 mph60%30.09 "HgN/A
1:20 PM68 °FPartly sunny.21 mph60%30.09 "HgN/A
12:20 PM66 °FScattered clouds.20 mph68%30.09 "HgN/A
Weather by CustomWeather, © 2016

See weather overviewHow to use our weather pages